contact:dominique.lefevre@mio.osupytheas.fr, maurice.libes@osupytheas.fr, didier.mallarino@osupytheas.fr
Project:EMSO http://www.emso-fr.org/EMSO-France
Depth: 2436.0 m
Title:EMSO Ligure Ouest : Data MII capteur CSTAR
DateTime,Latitude,Longitude,Instrument_Serial,Reference_Counts,Signal_Counts,Corrected_Signal_raw_counts,Calculated_Beam_c_inverse_meters,Internal_thermistor_counts
DateTime,Latitude,Longitude,Instrument_Serial,Reference_Counts,Signal_Counts,Corrected_Signal_raw_counts,Calculated_Beam_c_inverse_meters,Internal_thermistor_counts
2019-07-27T00:02:56,42.805,6.029,CST-1368DR,8521,11921,15452,0.042,551
2019-07-27T00:05:57,42.805,6.029,CST-1368DR,8520,11920,15453,0.042,551
2019-07-27T00:08:59,42.805,6.029,CST-1368DR,8520,11921,15454,0.042,551
2019-07-27T00:12:01,42.805,6.029,CST-1368DR,8521,11921,15452,0.042,551
2019-07-27T00:15:02,42.805,6.029,CST-1368DR,8521,11920,15451,0.042,551
2019-07-27T00:18:04,42.805,6.029,CST-1368DR,8521,11921,15452,0.042,551
2019-07-27T00:21:06,42.805,6.029,CST-1368DR,8520,11921,15454,0.042,551
2019-07-27T00:24:07,42.805,6.029,CST-1368DR,8520,11920,15453,0.042,551
2019-07-27T00:27:09,42.805,6.029,CST-1368DR,8520,11920,15453,0.042,551
2019-07-27T00:30:11,42.805,6.029,CST-1368DR,8520,11921,15454,0.042,551
2019-07-27T00:33:12,42.805,6.029,CST-1368DR,8520,11919,15452,0.042,551
2019-07-27T00:36:14,42.805,6.029,CST-1368DR,8520,11921,15454,0.042,551
2019-07-27T00:39:15,42.805,6.029,CST-1368DR,8520,11921,15454,0.042,551
2019-07-27T00:42:17,42.805,6.029,CST-1368DR,8520,11920,15453,0.042,551
2019-07-27T00:45:20,42.805,6.029,CST-1368DR,8520,11919,15452,0.042,551
2019-07-27T00:48:21,42.805,6.029,CST-1368DR,8520,11920,15453,0.042,551
2019-07-27T00:51:23,42.805,6.029,CST-1368DR,8520,11921,15454,0.042,551
2019-07-27T00:54:24,42.805,6.029,CST-1368DR,8520,11921,15454,0.042,551
2019-07-27T00:57:26,42.805,6.029,CST-1368DR,8520,11921,15454,0.042,551
2019-07-27T01:00:28,42.805,6.029,CST-1368DR,8520,11921,15454,0.042,551
2019-07-27T01:03:30,42.805,6.029,CST-1368DR,8520,11920,15453,0.042,551
2019-07-27T01:06:31,42.805,6.029,CST-1368DR,8520,11919,15452,0.042,551
2019-07-27T01:09:33,42.805,6.029,CST-1368DR,8520,11919,15452,0.042,551
2019-07-27T01:12:34,42.805,6.029,CST-1368DR,8520,11921,15454,0.042,551
2019-07-27T01:15:36,42.805,6.029,CST-1368DR,8520,11921,15454,0.042,551
2019-07-27T01:18:38,42.805,6.029,CST-1368DR,8520,11917,15450,0.043,551
2019-07-27T01:21:39,42.805,6.029,CST-1368DR,8520,11920,15453,0.042,551
2019-07-27T01:24:41,42.805,6.029,CST-1368DR,8520,11921,15454,0.042,551
2019-07-27T01:27:43,42.805,6.029,CST-1368DR,8520,11920,15453,0.042,550
2019-07-27T01:30:44,42.805,6.029,CST-1368DR,8520,11920,15453,0.042,551
2019-07-27T01:33:46,42.805,6.029,CST-1368DR,8520,11920,15453,0.042,551
2019-07-27T01:36:48,42.805,6.029,CST-1368DR,8520,11919,15452,0.042,551
2019-07-27T01:39:49,42.805,6.029,CST-1368DR,8520,11921,15454,0.042,551
2019-07-27T01:42:51,42.805,6.029,CST-1368DR,8520,11920,15453,0.042,551
2019-07-27T01:45:52,42.805,6.029,CST-1368DR,8520,11919,15451,0.042,551
2019-07-27T01:48:54,42.805,6.029,CST-1368DR,8520,11919,15452,0.042,550
2019-07-27T01:51:56,42.805,6.029,CST-1368DR,8520,11920,15453,0.042,551
2019-07-27T01:54:57,42.805,6.029,CST-1368DR,8520,11919,15452,0.042,551
2019-07-27T01:57:59,42.805,6.029,CST-1368DR,8520,11920,15453,0.042,551
2019-07-27T02:01:01,42.805,6.029,CST-1368DR,8520,11920,15453,0.042,550
2019-07-27T02:04:02,42.805,6.029,CST-1368DR,8520,11919,15452,0.042,551
2019-07-27T02:07:04,42.805,6.029,CST-1368DR,8520,11920,15453,0.042,551
2019-07-27T02:10:06,42.805,6.029,CST-1368DR,8520,11919,15452,0.042,551
2019-07-27T02:13:07,42.805,6.029,CST-1368DR,8519,11920,15454,0.042,551
2019-07-27T02:16:09,42.805,6.029,CST-1368DR,8520,11920,15453,0.042,551
2019-07-27T02:19:10,42.805,6.029,CST-1368DR,8519,11920,15455,0.041,551
2019-07-27T02:22:12,42.805,6.029,CST-1368DR,8520,11919,15452,0.042,551
2019-07-27T02:25:14,42.805,6.029,CST-1368DR,8519,11919,15453,0.042,551
2019-07-27T02:28:15,42.805,6.029,CST-1368DR,8519,11919,15453,0.042,551
2019-07-27T02:31:17,42.805,6.029,CST-1368DR,8519,11920,15454,0.042,551
2019-07-27T02:34:19,42.805,6.029,CST-1368DR,8519,11920,15455,0.041,551
2019-07-27T02:37:20,42.805,6.029,CST-1368DR,8519,11919,15453,0.042,551
2019-07-27T02:40:22,42.805,6.029,CST-1368DR,8519,11918,15452,0.042,551
2019-07-27T02:43:23,42.805,6.029,CST-1368DR,8519,11919,15453,0.042,551
2019-07-27T02:46:25,42.805,6.029,CST-1368DR,8519,11918,15453,0.042,551
2019-07-27T02:49:27,42.805,6.029,CST-1368DR,8519,11919,15453,0.042,551
2019-07-27T02:52:28,42.805,6.029,CST-1368DR,8519,11916,15450,0.043,551
2019-07-27T02:55:30,42.805,6.029,CST-1368DR,8519,11918,15452,0.042,551
2019-07-27T02:58:32,42.805,6.029,CST-1368DR,8519,11919,15453,0.042,551
2019-07-27T03:01:33,42.805,6.029,CST-1368DR,8519,11919,15453,0.042,551
2019-07-27T03:04:35,42.805,6.029,CST-1368DR,8519,11919,15453,0.042,551
2019-07-27T03:07:37,42.805,6.029,CST-1368DR,8519,11919,15453,0.042,550
2019-07-27T03:10:38,42.805,6.029,CST-1368DR,8519,11917,15451,0.042,551
2019-07-27T03:13:40,42.805,6.029,CST-1368DR,8519,11917,15451,0.042,551
2019-07-27T03:16:42,42.805,6.029,CST-1368DR,8519,11918,15452,0.042,551
2019-07-27T03:19:43,42.805,6.029,CST-1368DR,8519,11918,15452,0.042,551
2019-07-27T03:22:45,42.805,6.029,CST-1368DR,8519,11918,15452,0.042,551
2019-07-27T03:25:46,42.805,6.029,CST-1368DR,8519,11918,15452,0.042,551
2019-07-27T03:28:48,42.805,6.029,CST-1368DR,8519,11916,15449,0.043,551
2019-07-27T03:31:50,42.805,6.029,CST-1368DR,8519,11918,15452,0.042,551
2019-07-27T03:34:51,42.805,6.029,CST-1368DR,8519,11919,15453,0.042,551
2019-07-27T03:37:53,42.805,6.029,CST-1368DR,8519,11918,15453,0.042,551
2019-07-27T03:40:55,42.805,6.029,CST-1368DR,8519,11918,15452,0.042,551
2019-07-27T03:43:56,42.805,6.029,CST-1368DR,8519,11918,15452,0.042,551
2019-07-27T03:46:58,42.805,6.029,CST-1368DR,8519,11917,15451,0.042,551
2019-07-27T03:49:59,42.805,6.029,CST-1368DR,8519,11918,15453,0.042,551
2019-07-27T03:53:01,42.805,6.029,CST-1368DR,8519,11918,15452,0.042,551
2019-07-27T03:56:03,42.805,6.029,CST-1368DR,8519,11918,15452,0.042,550
2019-07-27T03:59:04,42.805,6.029,CST-1368DR,8519,11919,15453,0.042,551
2019-07-27T04:02:06,42.805,6.029,CST-1368DR,8519,11917,15451,0.042,551
2019-07-27T04:05:08,42.805,6.029,CST-1368DR,8519,11918,15453,0.042,551
2019-07-27T04:08:09,42.805,6.029,CST-1368DR,8519,11917,15451,0.042,551
2019-07-27T04:11:11,42.805,6.029,CST-1368DR,8519,11917,15451,0.042,551
2019-07-27T04:14:13,42.805,6.029,CST-1368DR,8519,11918,15452,0.042,551
2019-07-27T04:17:14,42.805,6.029,CST-1368DR,8519,11916,15449,0.043,550
2019-07-27T04:20:16,42.805,6.029,CST-1368DR,8519,11918,15452,0.042,551
2019-07-27T04:23:17,42.805,6.029,CST-1368DR,8519,11917,15451,0.042,551
2019-07-27T04:26:19,42.805,6.029,CST-1368DR,8519,11918,15452,0.042,551
2019-07-27T04:29:21,42.805,6.029,CST-1368DR,8519,11915,15448,0.043,551
2019-07-27T04:32:22,42.805,6.029,CST-1368DR,8519,11916,15450,0.043,551
2019-07-27T04:35:24,42.805,6.029,CST-1368DR,8519,11917,15451,0.042,551
2019-07-27T04:38:26,42.805,6.029,CST-1368DR,8519,11914,15447,0.044,551
2019-07-27T04:41:27,42.805,6.029,CST-1368DR,8518,11916,15452,0.042,551
2019-07-27T04:44:29,42.805,6.029,CST-1368DR,8518,11917,15452,0.042,551
2019-07-27T04:47:30,42.805,6.029,CST-1368DR,8518,11917,15452,0.042,551
2019-07-27T04:50:32,42.805,6.029,CST-1368DR,8518,11915,15450,0.043,551
2019-07-27T04:53:34,42.805,6.029,CST-1368DR,8518,11916,15451,0.042,551
2019-07-27T04:56:35,42.805,6.029,CST-1368DR,8518,11917,15452,0.042,551
2019-07-27T04:59:37,42.805,6.029,CST-1368DR,8518,11916,15451,0.042,551
2019-07-27T05:02:39,42.805,6.029,CST-1368DR,8518,11916,15452,0.042,550
2019-07-27T05:05:40,42.805,6.029,CST-1368DR,8518,11916,15451,0.042,551
2019-07-27T05:08:42,42.805,6.029,CST-1368DR,8518,11915,15449,0.043,551
2019-07-27T05:11:44,42.805,6.029,CST-1368DR,8518,11915,15450,0.043,551
2019-07-27T05:14:45,42.805,6.029,CST-1368DR,8518,11915,15450,0.043,551
2019-07-27T05:17:47,42.805,6.029,CST-1368DR,8518,11917,15452,0.042,551
2019-07-27T05:20:48,42.805,6.029,CST-1368DR,8518,11916,15451,0.042,551
2019-07-27T05:23:50,42.805,6.029,CST-1368DR,8518,11916,15451,0.042,551
2019-07-27T05:26:52,42.805,6.029,CST-1368DR,8518,11914,15449,0.043,551
2019-07-27T05:29:53,42.805,6.029,CST-1368DR,8518,11913,15448,0.043,551
2019-07-27T05:32:55,42.805,6.029,CST-1368DR,8518,11916,15451,0.042,551
2019-07-27T05:35:57,42.805,6.029,CST-1368DR,8518,11915,15450,0.043,551
2019-07-27T05:38:58,42.805,6.029,CST-1368DR,8518,11915,15450,0.043,551
2019-07-27T05:42:00,42.805,6.029,CST-1368DR,8518,11915,15450,0.043,551
2019-07-27T05:45:02,42.805,6.029,CST-1368DR,8518,11916,15451,0.042,551
2019-07-27T05:48:03,42.805,6.029,CST-1368DR,8518,11915,15450,0.043,551
2019-07-27T05:51:05,42.805,6.029,CST-1368DR,8518,11915,15450,0.043,551
2019-07-27T05:54:07,42.805,6.029,CST-1368DR,8518,11917,15452,0.042,551
2019-07-27T05:57:08,42.805,6.029,CST-1368DR,8518,11916,15452,0.042,551
2019-07-27T06:00:10,42.805,6.029,CST-1368DR,8518,11915,15450,0.043,551
2019-07-27T06:03:11,42.805,6.029,CST-1368DR,8518,11915,15450,0.043,551
2019-07-27T06:06:13,42.805,6.029,CST-1368DR,8518,11915,15450,0.043,551
2019-07-27T06:09:15,42.805,6.029,CST-1368DR,8518,11915,15449,0.043,551
2019-07-27T06:12:17,42.805,6.029,CST-1368DR,8518,11916,15451,0.042,551
2019-07-27T06:15:18,42.805,6.029,CST-1368DR,8518,11913,15447,0.044,551
2019-07-27T06:18:20,42.805,6.029,CST-1368DR,8518,11915,15450,0.043,551
2019-07-27T06:21:21,42.805,6.029,CST-1368DR,8518,11917,15453,0.042,551
2019-07-27T06:24:23,42.805,6.029,CST-1368DR,8518,11915,15450,0.043,551
2019-07-27T06:27:26,42.805,6.029,CST-1368DR,8518,11916,15451,0.042,551
2019-07-27T06:30:27,42.805,6.029,CST-1368DR,8518,11914,15449,0.043,551
2019-07-27T06:33:29,42.805,6.029,CST-1368DR,8518,11915,15449,0.043,550
2019-07-27T06:36:31,42.805,6.029,CST-1368DR,8517,11915,15452,0.042,550
2019-07-27T06:39:32,42.805,6.029,CST-1368DR,8517,11914,15450,0.043,551
2019-07-27T06:42:34,42.805,6.029,CST-1368DR,8517,11915,15451,0.042,550
2019-07-27T06:45:35,42.805,6.029,CST-1368DR,8517,11915,15451,0.042,551
2019-07-27T06:48:37,42.805,6.029,CST-1368DR,8517,11915,15451,0.042,551
2019-07-27T06:51:39,42.805,6.029,CST-1368DR,8517,11914,15450,0.043,551
2019-07-27T06:54:40,42.805,6.029,CST-1368DR,8517,11916,15452,0.042,551
2019-07-27T06:57:42,42.805,6.029,CST-1368DR,8517,11914,15450,0.043,551
2019-07-27T07:00:44,42.805,6.029,CST-1368DR,8517,11915,15451,0.042,551
2019-07-27T07:03:45,42.805,6.029,CST-1368DR,8517,11915,15451,0.042,551
2019-07-27T07:06:47,42.805,6.029,CST-1368DR,8517,11913,15449,0.043,551
2019-07-27T07:09:49,42.805,6.029,CST-1368DR,8517,11914,15450,0.043,551
2019-07-27T07:12:50,42.805,6.029,CST-1368DR,8517,11914,15450,0.043,551
2019-07-27T07:15:52,42.805,6.029,CST-1368DR,8517,11913,15448,0.043,551
2019-07-27T07:18:54,42.805,6.029,CST-1368DR,8517,11914,15451,0.042,551
2019-07-27T07:21:55,42.805,6.029,CST-1368DR,8517,11914,15450,0.043,551
2019-07-27T07:24:57,42.805,6.029,CST-1368DR,8517,11915,15451,0.042,551
2019-07-27T07:27:58,42.805,6.029,CST-1368DR,8517,11913,15449,0.043,550
2019-07-27T07:31:00,42.805,6.029,CST-1368DR,8517,11914,15450,0.043,551
2019-07-27T07:34:02,42.805,6.029,CST-1368DR,8517,11914,15450,0.043,551
2019-07-27T07:37:03,42.805,6.029,CST-1368DR,8517,11915,15451,0.042,551
2019-07-27T07:40:05,42.805,6.029,CST-1368DR,8517,11915,15451,0.042,551
2019-07-27T07:43:07,42.805,6.029,CST-1368DR,8517,11915,15451,0.042,551
2019-07-27T07:46:08,42.805,6.029,CST-1368DR,8517,11913,15448,0.043,551
2019-07-27T07:49:10,42.805,6.029,CST-1368DR,8517,11913,15449,0.043,551
2019-07-27T07:52:12,42.805,6.029,CST-1368DR,8517,11914,15451,0.042,551
2019-07-27T07:55:13,42.805,6.029,CST-1368DR,8517,11913,15449,0.043,551
2019-07-27T07:58:15,42.805,6.029,CST-1368DR,8517,11912,15448,0.043,550
2019-07-27T08:01:17,42.805,6.029,CST-1368DR,8517,11915,15451,0.042,551
2019-07-27T08:04:18,42.805,6.029,CST-1368DR,8517,11914,15450,0.043,551
2019-07-27T08:07:20,42.805,6.029,CST-1368DR,8517,11912,15447,0.044,551
2019-07-27T08:10:22,42.805,6.029,CST-1368DR,8517,11914,15450,0.043,551
2019-07-27T08:13:23,42.805,6.029,CST-1368DR,8517,11914,15450,0.043,551
2019-07-27T08:16:25,42.805,6.029,CST-1368DR,8516,11915,15453,0.042,551
2019-07-27T08:19:26,42.805,6.029,CST-1368DR,8516,11913,15451,0.042,551
2019-07-27T08:22:28,42.805,6.029,CST-1368DR,8516,11913,15451,0.042,551
2019-07-27T08:25:30,42.805,6.029,CST-1368DR,8516,11912,15450,0.043,551
2019-07-27T08:28:31,42.805,6.029,CST-1368DR,8516,11906,15441,0.045,551
2019-07-27T08:31:33,42.805,6.029,CST-1368DR,8516,11913,15450,0.043,551
2019-07-27T08:34:35,42.805,6.029,CST-1368DR,8516,11912,15450,0.043,551
2019-07-27T08:37:36,42.805,6.029,CST-1368DR,8516,11913,15450,0.043,551
2019-07-27T08:40:38,42.805,6.029,CST-1368DR,8516,11915,15453,0.042,551
2019-07-27T08:43:39,42.805,6.029,CST-1368DR,8516,11913,15450,0.043,551
2019-07-27T08:46:41,42.805,6.029,CST-1368DR,8516,11914,15452,0.042,551
2019-07-27T08:49:43,42.805,6.029,CST-1368DR,8516,11910,15447,0.044,551
2019-07-27T08:52:45,42.805,6.029,CST-1368DR,8516,11914,15452,0.042,551
2019-07-27T08:55:46,42.805,6.029,CST-1368DR,8516,11912,15449,0.043,551
2019-07-27T08:58:48,42.805,6.029,CST-1368DR,8516,11914,15452,0.042,551
2019-07-27T09:01:50,42.805,6.029,CST-1368DR,8516,11914,15452,0.042,550
2019-07-27T09:04:51,42.805,6.029,CST-1368DR,8516,11912,15449,0.043,551
2019-07-27T09:07:53,42.805,6.029,CST-1368DR,8516,11914,15452,0.042,551
2019-07-27T09:10:54,42.805,6.029,CST-1368DR,8516,11913,15450,0.043,551
2019-07-27T09:13:56,42.805,6.029,CST-1368DR,8516,11913,15450,0.043,551
2019-07-27T09:16:58,42.805,6.029,CST-1368DR,8516,11914,15451,0.042,551
2019-07-27T09:19:59,42.805,6.029,CST-1368DR,8516,11914,15452,0.042,551
2019-07-27T09:23:01,42.805,6.029,CST-1368DR,8516,11911,15448,0.043,551
2019-07-27T09:26:03,42.805,6.029,CST-1368DR,8516,11912,15450,0.043,551
2019-07-27T09:29:04,42.805,6.029,CST-1368DR,8516,11913,15450,0.043,551
2019-07-27T09:32:06,42.805,6.029,CST-1368DR,8516,11914,15451,0.042,551
2019-07-27T09:35:08,42.805,6.029,CST-1368DR,8516,11912,15449,0.043,551
2019-07-27T09:38:09,42.805,6.029,CST-1368DR,8516,11913,15450,0.043,551
2019-07-27T09:41:11,42.805,6.029,CST-1368DR,8516,11914,15452,0.042,551
2019-07-27T09:44:13,42.805,6.029,CST-1368DR,8516,11912,15449,0.043,551
2019-07-27T09:47:14,42.805,6.029,CST-1368DR,8516,11912,15449,0.043,551
2019-07-27T09:50:16,42.805,6.029,CST-1368DR,8516,11912,15449,0.043,551
2019-07-27T09:53:17,42.805,6.029,CST-1368DR,8516,11913,15451,0.042,550
2019-07-27T09:56:19,42.805,6.029,CST-1368DR,8516,11913,15451,0.042,551
2019-07-27T09:59:21,42.805,6.029,CST-1368DR,8516,11913,15450,0.043,551
2019-07-27T10:02:22,42.805,6.029,CST-1368DR,8516,11912,15449,0.043,551
2019-07-27T10:05:24,42.805,6.029,CST-1368DR,8516,11912,15450,0.043,551
2019-07-27T10:08:26,42.805,6.029,CST-1368DR,8516,11913,15450,0.043,551
2019-07-27T10:11:27,42.805,6.029,CST-1368DR,8516,11913,15450,0.043,550
2019-07-27T10:14:29,42.805,6.029,CST-1368DR,8516,11912,15449,0.043,551
2019-07-27T10:17:31,42.805,6.029,CST-1368DR,8516,11912,15449,0.043,551
2019-07-27T10:20:32,42.805,6.029,CST-1368DR,8516,11912,15449,0.043,551
2019-07-27T10:23:34,42.805,6.029,CST-1368DR,8515,11912,15451,0.042,551
2019-07-27T10:26:36,42.805,6.029,CST-1368DR,8515,11911,15450,0.043,551
2019-07-27T10:29:37,42.805,6.029,CST-1368DR,8515,11911,15450,0.043,551
2019-07-27T10:32:39,42.805,6.029,CST-1368DR,8515,11910,15449,0.043,551
2019-07-27T10:35:41,42.805,6.029,CST-1368DR,8515,11913,15453,0.042,551
2019-07-27T10:38:42,42.805,6.029,CST-1368DR,8515,11911,15450,0.043,551
2019-07-27T10:41:44,42.805,6.029,CST-1368DR,8515,11911,15450,0.043,550
2019-07-27T10:44:45,42.805,6.029,CST-1368DR,8515,11912,15451,0.042,551
2019-07-27T10:47:47,42.805,6.029,CST-1368DR,8515,11908,15446,0.044,551
2019-07-27T10:50:49,42.805,6.029,CST-1368DR,8515,11911,15450,0.043,551
2019-07-27T10:53:50,42.805,6.029,CST-1368DR,8515,11910,15448,0.043,551
2019-07-27T10:56:52,42.805,6.029,CST-1368DR,8515,11911,15450,0.043,551
2019-07-27T10:59:54,42.805,6.029,CST-1368DR,8515,11912,15451,0.042,551
2019-07-27T11:02:55,42.805,6.029,CST-1368DR,8515,11911,15450,0.043,551
2019-07-27T11:05:57,42.805,6.029,CST-1368DR,8515,11911,15450,0.043,551
2019-07-27T11:08:59,42.805,6.029,CST-1368DR,8515,11911,15450,0.043,551
2019-07-27T11:12:00,42.805,6.029,CST-1368DR,8515,11909,15447,0.044,551
2019-07-27T11:15:02,42.805,6.029,CST-1368DR,8515,11911,15450,0.043,551
2019-07-27T11:18:04,42.805,6.029,CST-1368DR,8515,11912,15450,0.043,551
2019-07-27T11:21:05,42.805,6.029,CST-1368DR,8515,11911,15450,0.043,551
2019-07-27T11:24:07,42.805,6.029,CST-1368DR,8515,11910,15448,0.043,551
2019-07-27T11:27:08,42.805,6.029,CST-1368DR,8515,11911,15449,0.043,551
2019-07-27T11:30:10,42.805,6.029,CST-1368DR,8515,11912,15451,0.042,551
2019-07-27T11:33:12,42.805,6.029,CST-1368DR,8515,11911,15450,0.043,550
2019-07-27T11:36:14,42.805,6.029,CST-1368DR,8515,11911,15450,0.043,551
2019-07-27T11:39:15,42.805,6.029,CST-1368DR,8515,11909,15447,0.044,551
2019-07-27T11:42:17,42.805,6.029,CST-1368DR,8515,11911,15449,0.043,551
2019-07-27T11:45:18,42.805,6.029,CST-1368DR,8515,11911,15450,0.043,551
2019-07-27T11:48:20,42.805,6.029,CST-1368DR,8515,11909,15448,0.043,551
2019-07-27T11:51:22,42.805,6.029,CST-1368DR,8515,11911,15450,0.043,551
2019-07-27T11:54:23,42.805,6.029,CST-1368DR,8515,11911,15450,0.043,551
2019-07-27T11:57:26,42.805,6.029,CST-1368DR,8515,11911,15450,0.043,551
2019-07-27T12:00:27,42.805,6.029,CST-1368DR,8515,11911,15450,0.043,551
2019-07-27T12:03:29,42.805,6.029,CST-1368DR,8515,11909,15448,0.043,551
2019-07-27T12:06:31,42.805,6.029,CST-1368DR,8515,11911,15450,0.043,551
2019-07-27T12:09:32,42.805,6.029,CST-1368DR,8515,11911,15450,0.043,551
2019-07-27T12:12:34,42.805,6.029,CST-1368DR,8515,11911,15450,0.043,551
2019-07-27T12:15:35,42.805,6.029,CST-1368DR,8515,11911,15449,0.043,551
2019-07-27T12:18:37,42.805,6.029,CST-1368DR,8515,11908,15446,0.044,551
2019-07-27T12:21:39,42.805,6.029,CST-1368DR,8515,11911,15449,0.043,551
2019-07-27T12:24:40,42.805,6.029,CST-1368DR,8515,11911,15450,0.043,551
2019-07-27T12:27:42,42.805,6.029,CST-1368DR,8514,11909,15449,0.043,551
2019-07-27T12:30:44,42.805,6.029,CST-1368DR,8514,11910,15450,0.043,551
2019-07-27T12:33:45,42.805,6.029,CST-1368DR,8514,11909,15448,0.043,551
2019-07-27T12:36:47,42.805,6.029,CST-1368DR,8514,11910,15450,0.043,551
2019-07-27T12:39:48,42.805,6.029,CST-1368DR,8514,11909,15449,0.043,551
2019-07-27T12:42:50,42.805,6.029,CST-1368DR,8514,11910,15451,0.042,551
2019-07-27T12:45:52,42.805,6.029,CST-1368DR,8514,11910,15450,0.043,551
2019-07-27T12:48:53,42.805,6.029,CST-1368DR,8514,11909,15449,0.043,551
2019-07-27T12:51:55,42.805,6.029,CST-1368DR,8514,11910,15450,0.043,551
2019-07-27T12:54:57,42.805,6.029,CST-1368DR,8514,11909,15449,0.043,551
2019-07-27T12:57:58,42.805,6.029,CST-1368DR,8514,11910,15450,0.043,551
2019-07-27T13:01:00,42.805,6.029,CST-1368DR,8514,11910,15450,0.043,550
2019-07-27T13:04:02,42.805,6.029,CST-1368DR,8514,11910,15451,0.042,551
2019-07-27T13:07:03,42.805,6.029,CST-1368DR,8514,11910,15450,0.043,551
2019-07-27T13:10:05,42.805,6.029,CST-1368DR,8514,11910,15451,0.042,551
2019-07-27T13:13:07,42.805,6.029,CST-1368DR,8514,11909,15449,0.043,551
2019-07-27T13:16:08,42.805,6.029,CST-1368DR,8514,11910,15450,0.043,550
2019-07-27T13:19:10,42.805,6.029,CST-1368DR,8514,11909,15448,0.043,551
2019-07-27T13:22:11,42.805,6.029,CST-1368DR,8514,11910,15450,0.043,550
2019-07-27T13:25:13,42.805,6.029,CST-1368DR,8514,11909,15449,0.043,551
2019-07-27T13:28:15,42.805,6.029,CST-1368DR,8514,11909,15449,0.043,551
2019-07-27T13:31:16,42.805,6.029,CST-1368DR,8514,11910,15450,0.043,551
2019-07-27T13:34:18,42.805,6.029,CST-1368DR,8514,11909,15449,0.043,551
2019-07-27T13:37:20,42.805,6.029,CST-1368DR,8514,11910,15451,0.042,550
2019-07-27T13:40:21,42.805,6.029,CST-1368DR,8514,11908,15447,0.044,551
2019-07-27T13:43:23,42.805,6.029,CST-1368DR,8514,11909,15449,0.043,551
2019-07-27T13:46:25,42.805,6.029,CST-1368DR,8514,11910,15450,0.043,551
2019-07-27T13:49:26,42.805,6.029,CST-1368DR,8514,11909,15449,0.043,551
2019-07-27T13:52:28,42.805,6.029,CST-1368DR,8514,11909,15449,0.043,551
2019-07-27T13:55:30,42.805,6.029,CST-1368DR,8514,11910,15450,0.043,551
2019-07-27T13:58:31,42.805,6.029,CST-1368DR,8514,11909,15448,0.043,551
2019-07-27T14:01:33,42.805,6.029,CST-1368DR,8514,11909,15448,0.043,551
2019-07-27T14:04:35,42.805,6.029,CST-1368DR,8514,11909,15449,0.043,551
2019-07-27T14:07:36,42.805,6.029,CST-1368DR,8514,11909,15448,0.043,551
2019-07-27T14:10:38,42.805,6.029,CST-1368DR,8514,11908,15448,0.043,551
2019-07-27T14:13:40,42.805,6.029,CST-1368DR,8514,11909,15449,0.043,551
2019-07-27T14:16:41,42.805,6.029,CST-1368DR,8514,11909,15449,0.043,551
2019-07-27T14:19:43,42.805,6.029,CST-1368DR,8514,11908,15448,0.043,550
2019-07-27T14:22:45,42.805,6.029,CST-1368DR,8514,11908,15448,0.043,551
2019-07-27T14:25:46,42.805,6.029,CST-1368DR,8513,11908,15449,0.043,550
2019-07-27T14:28:48,42.805,6.029,CST-1368DR,8513,11909,15451,0.042,551
2019-07-27T14:31:50,42.805,6.029,CST-1368DR,8514,11909,15449,0.043,551
2019-07-27T14:34:51,42.805,6.029,CST-1368DR,8514,11908,15448,0.043,551
2019-07-27T14:37:53,42.805,6.029,CST-1368DR,8513,11909,15450,0.043,551
2019-07-27T14:40:54,42.805,6.029,CST-1368DR,8513,11907,15447,0.044,551
2019-07-27T14:43:56,42.805,6.029,CST-1368DR,8513,11904,15443,0.045,551
2019-07-27T14:46:58,42.805,6.029,CST-1368DR,8513,11907,15448,0.043,551
2019-07-27T14:49:59,42.805,6.029,CST-1368DR,8513,11908,15450,0.043,551
2019-07-27T14:53:01,42.805,6.029,CST-1368DR,8513,11909,15451,0.042,551
2019-07-27T14:56:03,42.805,6.029,CST-1368DR,8513,11907,15448,0.043,551
2019-07-27T14:59:04,42.805,6.029,CST-1368DR,8513,11908,15450,0.043,551
2019-07-27T15:02:06,42.805,6.029,CST-1368DR,8513,11908,15449,0.043,551
2019-07-27T15:05:07,42.805,6.029,CST-1368DR,8513,11908,15449,0.043,551
2019-07-27T15:08:09,42.805,6.029,CST-1368DR,8513,11908,15450,0.043,551
2019-07-27T15:11:11,42.805,6.029,CST-1368DR,8513,11908,15449,0.043,551
2019-07-27T15:14:12,42.805,6.029,CST-1368DR,8513,11908,15450,0.043,551
2019-07-27T15:17:14,42.805,6.029,CST-1368DR,8513,11907,15448,0.043,551
2019-07-27T15:20:16,42.805,6.029,CST-1368DR,8513,11908,15450,0.043,551
2019-07-27T15:23:17,42.805,6.029,CST-1368DR,8513,11908,15449,0.043,550
2019-07-27T15:26:19,42.805,6.029,CST-1368DR,8513,11908,15449,0.043,551
2019-07-27T15:29:20,42.805,6.029,CST-1368DR,8513,11908,15449,0.043,551
2019-07-27T15:32:22,42.805,6.029,CST-1368DR,8513,11908,15449,0.043,551
2019-07-27T15:35:24,42.805,6.029,CST-1368DR,8513,11908,15449,0.043,551
2019-07-27T15:38:25,42.805,6.029,CST-1368DR,8513,11908,15449,0.043,550
2019-07-27T15:41:27,42.805,6.029,CST-1368DR,8513,11907,15447,0.044,550
2019-07-27T15:44:29,42.805,6.029,CST-1368DR,8513,11908,15449,0.043,551
2019-07-27T15:47:30,42.805,6.029,CST-1368DR,8513,11908,15449,0.043,551
2019-07-27T15:50:32,42.805,6.029,CST-1368DR,8513,11905,15446,0.044,550
2019-07-27T15:53:33,42.805,6.029,CST-1368DR,8513,11907,15448,0.043,551
2019-07-27T15:56:35,42.805,6.029,CST-1368DR,8513,11905,15445,0.044,551
2019-07-27T15:59:37,42.805,6.029,CST-1368DR,8513,11908,15449,0.043,550
2019-07-27T16:02:38,42.805,6.029,CST-1368DR,8513,11908,15449,0.043,551
2019-07-27T16:05:40,42.805,6.029,CST-1368DR,8513,11907,15448,0.043,551
2019-07-27T16:08:42,42.805,6.029,CST-1368DR,8512,11907,15450,0.043,551
2019-07-27T16:11:43,42.805,6.029,CST-1368DR,8513,11906,15447,0.044,551
2019-07-27T16:14:45,42.805,6.029,CST-1368DR,8512,11906,15448,0.043,551
2019-07-27T16:17:47,42.805,6.029,CST-1368DR,8513,11907,15448,0.043,550
2019-07-27T16:20:48,42.805,6.029,CST-1368DR,8513,11908,15449,0.043,551
2019-07-27T16:23:50,42.805,6.029,CST-1368DR,8512,11906,15448,0.043,550
2019-07-27T16:26:51,42.805,6.029,CST-1368DR,8513,11907,15448,0.043,551
2019-07-27T16:29:53,42.805,6.029,CST-1368DR,8512,11907,15450,0.043,551
2019-07-27T16:32:55,42.805,6.029,CST-1368DR,8513,11907,15447,0.044,551
2019-07-27T16:35:56,42.805,6.029,CST-1368DR,8512,11907,15449,0.043,551
2019-07-27T16:38:58,42.805,6.029,CST-1368DR,8513,11907,15448,0.043,551